Location: ??
(35.3149°N, 139.6204°E)
Time: 10:30:27
(UTC+00:00)

YAOGAN 6 - Pass Details

Date: 03 August 2024
Orbit: 398 x 416 km, 97.2° (Epoch: 09 September)

Event Time Altitude Azimuth Distance (km) Brightness Sun altitude
Rises 19:06:36 0° 353° (N) 2,406 6.4 -9.3°
Reaches altitude 10° 19:09:01 10° 334° (NNW) 1,539 5.2 -8.9°
Maximum altitude 19:11:22 19° 288° (WNW) 1,121 4.0 -8.5°
Enters shadow 19:13:35 11° 244° (WSW) 1,493 4.3 -8.1°
